Vertical_Velocity
1 2 2 1 1 -0 -0 -1 -0 1 4 -1 1 -1 2 -1 -1 0 1 -1 -1 0 0 1 -3 1 -1 2 1 0 -0 5 0 -0 -1 1 1 2
-1 -0 1 0 -2 1 -1 -1 1 -0 3 -7 0 0 -1 1 -0 -2 0 1 -0 -1 -1 0 -1 0 1 -1 -1 0 -0 2 0 -0 0 -1 3 -1
1 1 0 -3 -1 -1 -1 -1 3 -1 6 -7 -0 -1 4 -5 3 -0 -0 1 1 1 -0 -0 0 -2 -0 1 -0 -1 0 -1 0 -0 0 3 -1 2
-1 -1 1 -3 3 -2 1 1 0 -2 2 2 -3 -3 3 -5 -1 2 -0 0 3 1 -1 3 1 -0 -1 -0 -1 -2 -2 -0 -0 -1 1 3 6 1
-2 1 1 -2 2 0 1 0 0 -2 0 3 1 0 2 -3 -3 -0 -1 -2 -1 3 1 2 -2 -1 -0 -2 -1 -1 -2 -1 -0 1 2 2 0 -2
0 2 -2 0 1 -1 -1 0 1 0 -1 3 3 -0 1 4 -5 -2 -3 -0 1 1 1 -1 1 -1 0 0 0 -1 -1 0 -0 -2 -1 -3 -1 1
-1 1 0 -0 2 -3 1 1 -1 1 -1 1 2 -3 2 2 -3 -8 6 -6 2 1 -0 -2 1 3 2 0 1 -1 1 0 -1 0 0 -2 -1 -1
0 1 0 -0 2 -2 1 1 -0 -0 1 0 -2 2 -2 5 -1 -1 2 -3 6 -6 -2 3 0 0 2 -0 0 -0 -0 0 -1 1 -1 0 -2 -1
0 -1 -1 4 -4 -0 1 -1 -0 1 -0 -0 0 3 -4 -0 -3 2 -0 -0 -3 8 -5 0 1 -2 3 -1 0 -2 -1 -1 -1 -1 -1 -0 -2 -2
0 1 -1 3 -1 1 -2 -2 2 -1 2 -3 0 -2 -1 -5 3 -2 -0 -2 2 1 -4 0 -0 1 -1 -1 -1 -0 -0 -1 -1 -0 -1 -2 -0 2
-0 -0 0 -0 3 -2 -3 2 -2 2 -0 -2 1 -2 0 -2 -0 -0 -0 -2 -0 3 -5 -3 4 -3 -2 -2 -2 -1 0 -0 -1 -2 0 1 1 1
3 1 0 2 -0 -1 -1 -0 -1 3 -3 -2 2 1 1 -1 -0 0 -1 -1 1 2 -4 -5 -2 -3 -2 2 -0 -0 0 -1 -1 0 0 1 1 1
-1 1 0 1 -0 -0 -1 1 1 -1 -1 1 -0 -1 0 0 -2 -2 -1 -0 -1 -2 3 -0 -0 -1 -1 3 1 0 -2 -2 -1 -0 -1 -2 -0 2
-0 -0 -0 1 -1 -1 0 -1 1 -1 1 1 -0 0 1 0 -1 -0 -1 -0 -1 1 1 -1 1 -1 -1 -1 -2 -3 -1 -1 -3 -3 -1 -1 -1 1
1 2 1 1 -0 1 -0 -0 -0 -1 -0 1 1 -0 0 -1 -1 -0 -0 1 -1 -1 -1 -1 -2 -2 -3 -2 -0 -1 -4 -0 -2 -2 -2 -2 -2 -2
-1 1 1 1 3 0 0 1 1 1 0 -0 -0 0 -0 -0 0 -1 -1 -0 -0 -0 -2 -3 -2 -0 -1 -2 -1 -0 -1 -2 -3 -3 -2 -4 -3 -1
0 1 1 2 1 0 0 1 1 0 1 1 0 -0 1 0 -0 -0 0 -1 -2 -2 -1 -1 -2 -2 -1 -2 -1 -1 -1 -2 -2 -2 -1 -1 -2 -0
7 0 2 4 1 3 -1 -0 -0 1 1 0 -0 -1 -2 -1 -1 -1 -1 -2 0 -0 -2 -2 -3 -0 -0 0 -1 1 -0 -1 -1 -1 -1 -0 -4 -3
6 6 2 2 2 2 1 -1 1 1 2 1 -0 -1 -2 -0 -1 -1 -0 -1 -1 -1 -0 -0 1 1 0 -1 1 0 -1 -1 0 1 1 -1 -0 -10
4 4 -1 -1 -1 -2 -0 -1 1 2 5 3 2 1 0 0 0 -0 0 0 0 1 1 1 2 -1 -3 -2 1 3 1 0 0 -3 -0 -2 1 -3
6 6 6 3 5 5 5 3 3 2 3 1 4 2 0 1 1 -0 -1 1 0 0 1 2 -0 -1 -4 1 5 4 -0 -0 1 -0 2 0 1 0
4 5 7 7 7 4 2 2 1 -1 -1 1 -1 -1 -1 -1 1 2 2 -0 -0 -1 -2 3 -0 -1 1 -0 -2 3 5 -1 2 0 0 -0 2 0
5 5 4 4 3 1 1 2 2 1 2 4 4 1 2 1 1 1 1 0 -2 -0 -0 -2 -1 -0 -0 1 1 -2 -0 0 1 1 1 1 1 -1
Height
5771 5775 5778 5780 5782 5784 5784 5786 5787 5788 5790 5790 5791 5790 5790 5790 5790 5790 5790 5788 5787 5786 5784 5782 5780 5778 5776 5775 5772 5770 5767 5765 5761 5758 5755 5751 5749 5746
5762 5765 5768 5770 5772 5774 5775 5776 5778 5779 5781 5781 5781 5781 5781 5782 5782 5781 5781 5780 5778 5776 5774 5772 5770 5767 5766 5764 5762 5758 5756 5754 5750 5747 5744 5741 5738 5735
5752 5755 5757 5760 5762 5764 5765 5767 5769 5770 5772 5772 5772 5772 5774 5771 5773 5773 5771 5770 5768 5766 5763 5761 5759 5757 5755 5753 5751 5748 5745 5741 5738 5735 5732 5728 5725 5723
5741 5744 5747 5749 5753 5754 5756 5758 5760 5760 5762 5764 5763 5763 5763 5762 5762 5762 5761 5760 5758 5755 5753 5751 5749 5747 5744 5742 5739 5737 5733 5730 5726 5723 5719 5716 5713 5710
5730 5734 5737 5739 5743 5744 5746 5748 5750 5751 5752 5753 5755 5754 5754 5754 5750 5750 5749 5747 5745 5745 5743 5741 5738 5735 5733 5731 5728 5725 5721 5718 5714 5710 5707 5703 5700 5697
5719 5723 5726 5729 5732 5733 5736 5738 5739 5741 5742 5742 5743 5743 5743 5744 5741 5740 5738 5736 5735 5734 5731 5729 5727 5724 5722 5720 5717 5713 5710 5706 5702 5697 5693 5690 5687 5685
5708 5712 5715 5718 5721 5722 5725 5727 5728 5729 5730 5731 5732 5732 5732 5732 5730 5728 5728 5726 5725 5723 5721 5718 5716 5714 5711 5708 5706 5702 5698 5693 5689 5685 5682 5680 5677 5674
5696 5700 5704 5707 5709 5711 5714 5715 5717 5717 5718 5719 5719 5720 5720 5720 5719 5717 5716 5714 5714 5711 5709 5707 5705 5702 5699 5696 5693 5689 5685 5681 5677 5675 5673 5671 5667 5664
5684 5688 5691 5694 5696 5698 5701 5703 5705 5706 5706 5707 5707 5708 5707 5707 5706 5706 5704 5703 5701 5700 5696 5695 5693 5690 5687 5683 5680 5676 5673 5670 5668 5666 5663 5660 5657 5654
5671 5674 5678 5682 5684 5686 5688 5690 5692 5693 5694 5694 5695 5694 5694 5694 5694 5693 5692 5691 5689 5687 5685 5683 5680 5678 5674 5671 5668 5666 5663 5660 5658 5655 5652 5649 5647 5644
5657 5661 5665 5668 5671 5673 5675 5677 5679 5680 5680 5682 5682 5681 5682 5681 5681 5680 5680 5678 5676 5674 5671 5670 5668 5664 5661 5658 5656 5655 5653 5651 5648 5645 5642 5640 5638 5635
5644 5648 5652 5655 5657 5660 5662 5664 5665 5666 5667 5668 5669 5669 5669 5668 5668 5667 5666 5664 5663 5662 5658 5657 5654 5652 5650 5648 5646 5644 5642 5640 5637 5634 5632 5630 5628 5625
5630 5634 5637 5641 5644 5646 5648 5650 5651 5653 5654 5655 5656 5656 5655 5655 5655 5654 5653 5652 5650 5648 5647 5645 5643 5641 5639 5638 5636 5633 5631 5629 5627 5626 5624 5620 5618 5616
5615 5619 5623 5626 5629 5632 5634 5636 5638 5639 5641 5642 5642 5643 5643 5643 5642 5642 5640 5639 5637 5636 5635 5633 5631 5629 5628 5626 5625 5623 5621 5619 5618 5617 5615 5611 5608 5605
5600 5604 5607 5611 5614 5616 5619 5622 5624 5625 5627 5628 5629 5630 5630 5630 5630 5629 5628 5627 5626 5625 5624 5622 5620 5618 5617 5617 5616 5614 5612 5610 5608 5606 5603 5600 5597 5594
5585 5589 5592 5596 5600 5602 5605 5607 5610 5611 5613 5615 5616 5617 5617 5618 5618 5617 5616 5616 5615 5614 5613 5611 5610 5610 5609 5607 5605 5603 5601 5600 5597 5594 5592 5589 5586 5582
5572 5576 5580 5583 5586 5589 5592 5594 5597 5599 5600 5602 5603 5604 5605 5605 5605 5605 5605 5604 5604 5604 5603 5602 5601 5599 5598 5597 5595 5593 5590 5588 5585 5583 5579 5576 5572 5568
5559 5563 5568 5570 5574 5576 5578 5581 5583 5585 5586 5588 5589 5591 5592 5593 5593 5593 5593 5593 5593 5593 5592 5591 5590 5588 5587 5585 5583 5581 5578 5576 5573 5570 5567 5563 5558 5554
5549 5552 5555 5558 5561 5563 5565 5568 5570 5573 5574 5575 5576 5578 5579 5580 5580 5580 5581 5581 5580 5580 5579 5578 5577 5576 5574 5572 5570 5567 5565 5563 5560 5556 5552 5548 5543 5538
5536 5539 5542 5545 5548 5550 5553 5556 5558 5560 5561 5563 5564 5565 5566 5566 5567 5567 5567 5568 5567 5566 5566 5565 5563 5562 5560 5558 5556 5553 5550 5547 5544 5541 5537 5532 5527 5521
5522 5526 5529 5532 5535 5538 5540 5542 5544 5546 5547 5549 5550 5550 5552 5553 5553 5553 5553 5553 5552 5552 5551 5550 5548 5546 5545 5543 5540 5537 5534 5531 5528 5524 5520 5516 5511 5506
5508 5511 5515 5518 5521 5523 5525 5527 5529 5531 5533 5534 5535 5536 5537 5538 5538 5538 5538 5538 5537 5536 5536 5534 5533 5531 5529 5527 5524 5522 5518 5515 5511 5508 5504 5499 5494 5489
5493 5497 5500 5503 5506 5509 5511 5512 5514 5516 5517 5519 5520 5521 5522 5522 5523 5523 5523 5522 5522 5520 5519 5518 5516 5513 5511 5509 5507 5503 5500 5497 5493 5490 5485 5481 5477 5472